Location: Oklahoma City
(35.4680°N, 97.5160°W)
Time: 08:14:19
(UTC-05:00)

ISS - Visible Passes

Search period start: 18 April 2015 00:00
Search period end: 28 April 2015 00:00
Orbit: 396 x 403 km, 51.6° (Epoch: 18 April)

Date Brightness Start Highest point End Pass type
(mag) Time Alt. Az. Time Alt. Az. Time Alt. Az.
18 Apr -1.7 21:55:40 10° NNW 21:57:57 28° NNE 21:57:57 28° NNE visible
19 Apr -1.2 21:02:13 10° NNW 21:04:30 18° NNE 21:06:15 13° ENE visible
19 Apr -0.4 22:37:55 10° WNW 22:38:49 17° WNW 22:38:49 17° WNW visible
20 Apr -3.4 21:43:55 10° NW 21:47:08 74° NE 21:47:08 74° NE visible
21 Apr -2.3 20:50:06 10° NNW 20:53:06 34° NE 20:55:28 14° E visible
21 Apr -0.6 22:26:58 10° W 22:28:01 15° W 22:28:01 15° W visible
22 Apr -2.4 21:32:19 10° WNW 21:35:23 40° SW 21:36:23 30° S visible
23 Apr -3.4 20:38:06 10° NW 20:41:21 84° NE 20:44:35 10° SE visible
24 Apr -0.8 21:21:10 10° W 21:23:19 16° SW 21:25:22 10° S visible
